1491991200.99,39315,14.06,73296.3,3.89,-12.83,-15.35,0,*78
1491991202.21,39316,14.06,73294.8,3.87,-13.15,-15.63,0,*78
1491991203.46,39317,14.06,73292.5,3.87,-12.29,-14.55,0,*73
1491991204.66,39318,14.06,73294.5,3.89,-12.39,-14.23,0,*72
1491991205.89,39319,14.06,73300.5,3.87,-13.23,-15.11,0,*77
1491991207.11,39320,14.06,73296.3,3.85,-14.33,-15.89,0,*78
1491991208.37,39321,14.06,73300.3,3.83,-14.43,-15.53,0,*7F
1491991209.64,39322,14.06,73298.8,3.83,-13.79,-14.79,0,*7B
1491991210.89,39323,14.06,73294.3,3.81,-13.33,-14.05,0,*7D
1491991212.11,39324,14.06,73290.0,3.85,-12.61,-13.73,0,*7E
1491991213.34,39325,14.06,73286.8,3.81,-12.21,-13.33,0,*7B
1491991214.54,39326,14.06,73286.0,3.81,-12.47,-13.65,0,*7B
1491991215.76,39327,14.06,73286.8,3.81,-12.25,-13.37,0,*79
1491991217.01,39328,14.06,73284.3,3.83,-13.73,-14.79,0,*7B
1491991218.23,39329,14.06,73286.3,3.81,-13.65,-14.93,0,*7B
1491991219.49,39330,14.06,73286.8,3.79,-12.89,-14.01,0,*7C
1491991220.71,39331,14.06,73284.3,3.79,-10.89,-12.29,0,*73
1491991221.96,39332,14.06,73286.0,3.79,-10.49,-12.15,0,*73
1491991223.19,39333,14.06,73286.0,3.79,-11.45,-13.43,0,*7D
1491991224.41,39334,14.06,73286.3,3.81,-11.41,-13.33,0,*7E
1491991225.66,39335,14.06,73292.5,3.83,-10.79,-12.93,0,*7C
1491991226.9,39336,14.06,73298.5,3.85,-11.73,-13.79,0,*77
1491991228.12,39337,14.06,73302.0,3.83,-12.47,-14.33,0,*7D
1491991229.32,39338,14.0,73294.8,3.85,-12.47,-14.19,0,*7C
1491991230.55,39339,14.06,73296.5,3.85,-13.01,-14.61,0,*71
1491991231.79,39340,14.06,73300.5,3.85,-13.33,-14.75,0,*7B
1491991233.01,39341,14.06,73300.0,3.85,-14.15,-15.29,0,*71
1491991234.22,39342,14.06,73300.5,3.85,-14.15,-15.07,0,*7E
1491991235.48,39343,14.06,73300.0,3.83,-14.15,-14.75,0,*7D
1491991236.73,39344,14.06,73296.3,3.85,-13.79,-14.01,0,*72
1491991237.93,39345,14.06,73294.8,3.85,-13.73,-13.19,0,*77
1491991239.16,39346,14.06,73292.3,3.85,-13.29,-12.21,0,*71
1491991240.39,39347,14.06,73292.3,3.85,-11.93,-10.85,0,*7F
1491991241.62,39348,14.06,73284.3,3.87,-11.15,-10.35,0,*77
1491991242.87,39349,14.06,73286.0,3.87,-11.29,-11.01,0,*7F
1491991244.1,39350,14.06,73286.8,3.87,-10.57,-10.35,0,*79
1491991245.32,39351,14.06,73284.0,3.87,-10.49,-10.23,0,*70
1491991246.56,39352,14.06,73282.0,3.89,-10.71,-10.35,0,*71
1491991247.77,39353,14.06,73282.5,3.87,-9.97,-9.79,0,*7E
1491991249.0,39354,14.06,73274.3,3.87,-10.19,-10.35,0,*77
1491991250.19,39355,14.0,73270.8,3.89,-8.97,-9.23,0,*78
1491991251.42,39356,14.06,73274.0,3.87,-11.01,-11.41,0,*7F
1491991252.68,39357,14.06,73276.0,3.87,-10.79,-11.33,0,*75
1491991253.93,39358,14.06,73272.8,3.87,-10.57,-11.29,0,*7D
1491991255.14,39359,14.06,73280.0,3.83,-10.09,-10.85,0,*74
1491991256.38,39360,14.06,73282.3,3.83,-9.97,-11.07,0,*4A
1491991257.58,39361,14.06,73284.8,3.85,-9.67,-10.93,0,*4E
1491991258.82,39362,14.06,73286.5,3.83,-10.09,-11.63,0,*75
1491991260.08,39363,14.06,73288.5,3.83,-10.67,-12.43,0,*7D
1491991261.3,39364,14.06,73294.8,3.79,-11.15,-13.15,0,*79
1491991262.51,39365,14.06,73288.0,3.75,-10.05,-12.43,0,*76
1491991263.74,39366,14.06,73302.0,3.77,-11.67,-14.37,0,*77
1491991264.99,39367,14.06,73296.3,3.75,-11.89,-14.89,0,*71
1491991266.22,39368,14.06,73296.3,3.71,-10.31,-13.51,0,*7A
1491991267.46,39369,14.06,73294.5,3.71,-10.09,-13.33,0,*74
1491991268.68,39370,14.06,73294.3,3.71,-10.45,-13.69,0,*7B
1491991269.9,39371,14.06,73298.0,3.71,-13.07,-16.45,0,*74
1491991271.13,39372,14.0,73296.8,3.71,-13.23,-16.41,0,*75
1491991272.39,39373,14.06,73296.5,3.67,-12.53,-15.53,0,*75
1491991273.65,39374,14.06,73298.8,3.65,-12.57,-15.39,0,*78
1491991274.93,39375,14.06,73294.3,3.67,-12.83,-15.43,0,*7F
1491991276.14,39376,14.06,73298.0,3.65,-14.15,-16.45,0,*72
1491991277.37,39377,14.06,73298.8,3.65,-14.83,-16.93,0,*77
1491991278.58,39378,14.06,73298.5,3.65,-14.89,-16.75,0,*7A
1491991279.81,39379,14.06,73296.3,3.63,-14.69,-16.17,0,*77
1491991281.09,39380,14.06,73298.0,3.61,-14.01,-15.43,0,*7F
1491991282.32,39381,14.06,73298.3,3.63,-13.01,-14.29,0,*76
1491991283.56,39382,14.06,73300.5,3.65,-14.11,-15.39,0,*75
1491991284.81,39383,14.06,73300.0,3.65,-14.97,-16.13,0,*71
1491991286.05,39384,14.06,73302.5,3.65,-14.83,-15.99,0,*72
1491991287.28,39385,14.06,73300.3,3.65,-15.25,-16.27,0,*78
1491991288.5,39386,14.06,73298.5,3.65,-15.01,-15.71,0,*7D
1491991289.75,39387,14.06,73300.8,3.67,-15.01,-15.75,0,*7A
1491991291.01,39388,14.06,73298.8,3.65,-14.75,-15.39,0,*7D
1491991292.28,39389,14.06,73292.8,3.65,-13.97,-14.51,0,*78
1491991293.54,39390,14.06,73292.3,3.67,-14.23,-14.55,0,*7E
1491991294.77,39391,14.06,73292.0,3.65,-14.83,-14.69,0,*78
1491991296.01,39392,14.06,73284.5,3.65,-14.83,-14.65,0,*77
1491991297.21,39393,14.06,73282.5,3.63,-15.49,-15.15,0,*71
1491991298.46,39394,14.06,73276.8,3.63,-14.79,-14.75,0,*73
1491991299.71,39395,14.06,73282.0,3.61,-15.15,-15.01,0,*79
1491991300.96,39396,14.06,73280.8,3.61,-16.31,-15.75,0,*7C
1491991302.23,39397,14.06,73278.5,3.61,-15.57,-14.47,0,*7E
1491991303.49,39398,14.06,73282.0,3.57,-15.39,-13.51,0,*7C
1491991304.74,39399,14.06,73258.0,3.57,-13.69,-11.73,0,*7C
1491991306.0,39400,14.06,73262.8,3.57,-11.59,-9.79,0,*49
1491991307.19,39401,14.06,73274.0,3.59,-10.85,-9.27,0,*4D
1491991308.42,39402,14.06,73268.3,3.59,-11.51,-10.23,0,*7A
1491991309.65,39403,14.06,73270.3,3.59,-12.53,-11.41,0,*7F
1491991310.9,39404,14.06,73274.0,3.59,-11.93,-11.51,0,*76
1491991312.13,39405,14.06,73280.3,3.57,-10.85,-11.01,0,*7A
1491991313.38,39406,14.06,73286.3,3.57,-9.75,-10.71,0,*48
1491991314.64,39407,14.06,73288.8,3.57,-9.37,-10.97,0,*47
1491991315.89,39408,14.06,73292.8,3.53,-9.93,-11.85,0,*40
1491991317.12,39409,14.06,73288.3,3.55,-8.55,-10.63,0,*45
1491991318.38,39410,14.06,73288.0,3.57,-8.11,-10.15,0,*4E
1491991319.58,39411,14.06,73288.0,3.59,-8.45,-10.45,0,*45
1491991320.82,39412,14.06,73292.3,3.61,-7.83,-9.83,0,*7A
1491991322.01,39413,14.06,73294.5,3.63,-8.97,-11.01,0,*40
1491991323.22,39414,14.06,73292.0,3.63,-8.17,-10.19,0,*47
1491991324.45,39415,14.06,73296.0,3.65,-9.11,-11.41,0,*4B
1491991325.72,39416,14.06,73294.3,3.67,-9.61,-11.73,0,*4C
1491991326.96,39417,14.06,73292.0,3.67,-9.89,-11.97,0,*41
1491991328.22,39418,14.06,73296.5,3.67,-10.71,-13.23,0,*7C
1491991329.44,39419,14.06,73296.3,3.67,-9.79,-12.03,0,*4E
1491991330.67,39420,14.06,73292.3,3.67,-10.01,-12.25,0,*77
1491991331.89,39421,14.06,73294.5,3.67,-9.67,-12.03,0,*4A
1491991333.11,39422,14.06,73294.5,3.67,-9.67,-12.03,0,*49
1491991334.39,39423,14.06,73290.0,3.67,-9.11,-11.59,0,*45
1491991335.64,39424,14.06,73294.5,3.71,-8.21,-10.63,0,*4F
1491991336.84,39425,14.06,73288.8,3.73,-7.83,-10.09,0,*47
1491991338.1,39426,14.06,73288.3,3.75,-7.35,-9.57,0,*7C
1491991339.31,39427,14.06,73290.8,3.77,-7.57,-9.97,0,*77
1491991340.56,39428,14.06,73284.8,3.79,-7.35,-9.79,0,*72
1491991341.81,39429,14.06,73288.8,3.81,-7.99,-10.41,0,*41
1491991343.05,39430,14.06,73284.8,3.81,-9.45,-11.85,0,*4F
1491991344.28,39431,14.06,73288.0,3.81,-10.41,-13.11,0,*7D
1491991345.49,39432,14.06,73284.3,3.81,-10.71,-13.47,0,*7E
1491991346.74,39433,14.06,73290.8,3.79,-10.09,-12.83,0,*7E
1491991347.96,39434,14.06,73288.8,3.81,-9.31,-12.07,0,*41
1491991349.18,39435,14.06,73290.5,3.81,-9.23,-11.97,0,*49
1491991350.43,39436,14.06,73292.8,3.83,-8.89,-11.63,0,*42
1491991351.68,39437,14.06,73290.8,3.83,-8.17,-10.67,0,*41
1491991352.96,39438,14.06,73296.8,3.87,-9.15,-11.55,0,*49
1491991354.18,39439,14.06,73292.3,3.87,-10.31,-12.39,0,*7F
1491991355.4,39440,14.06,73294.5,3.89,-9.93,-12.15,0,*41
1491991356.62,39441,14.06,73296.5,3.93,-11.29,-13.55,0,*76
1491991357.82,39442,14.06,73294.3,3.93,-11.41,-13.51,0,*7F
1491991359.03,39443,14.06,73292.8,3.89,-12.21,-14.19,0,*7B
1491991360.29,39444,14.06,73290.0,3.87,-13.61,-15.29,0,*75
1491991361.51,39445,14.06,73288.0,3.87,-14.89,-15.75,0,*7C
1491991362.74,39446,14.06,73292.3,3.85,-14.29,-14.51,0,*70
1491991364.01,39447,14.06,73292.3,3.83,-13.87,-13.61,0,*70
1491991365.23,39448,14.06,73296.8,3.81,-12.47,-11.51,0,*71
1491991366.48,39449,14.06,73298.5,3.83,-11.55,-10.09,0,*7E
1491991367.69,39450,14.06,73294.5,3.85,-11.23,-10.01,0,*79
1491991368.91,39451,14.06,73292.3,3.85,-9.45,-8.37,0,*7D
1491991370.12,39452,14.06,73294.3,3.89,-9.11,-8.59,0,*7B
1491991371.37,39453,14.06,73290.8,3.89,-9.41,-9.61,0,*75
1491991372.61,39454,14.06,73290.5,3.95,-8.71,-9.45,0,*7B
1491991373.87,39455,14.06,73288.8,3.95,-7.27,-8.51,0,*72
1491991375.11,39456,14.06,73288.5,3.99,-7.39,-9.15,0,*73
1491991376.35,39457,14.06,73290.3,4.01,-7.91,-9.97,0,*7C
1491991377.56,39458,14.06,73284.5,4.03,-7.99,-9.93,0,*7D
1491991378.79,39459,14.06,73286.5,4.07,-8.11,-10.27,0,*40
1491991380.02,39460,14.06,73294.0,4.05,-9.01,-11.23,0,*4D
1491991381.24,39461,14.06,73290.5,4.05,-10.53,-13.15,0,*74
1491991382.46,39462,14.06,73294.5,4.05,-10.53,-13.07,0,*74
1491991383.67,39463,14.06,73294.3,4.07,-9.71,-12.29,0,*42
1491991384.91,39464,14.06,73294.0,4.05,-10.53,-13.37,0,*71
1491991386.11,39465,14.06,73294.8,4.03,-10.89,-13.65,0,*76
1491991387.39,39466,14.06,73290.0,4.01,-11.73,-14.47,0,*74
1491991388.64,39467,14.06,73288.8,4.01,-11.41,-13.87,0,*7F
1491991389.92,39468,14.06,73294.3,4.01,-12.11,-14.55,0,*7E
1491991391.18,39469,14.06,73294.5,4.01,-12.89,-14.97,0,*70
1491991392.44,39470,14.06,73292.0,3.99,-12.71,-14.47,0,*74
1491991393.72,39471,14.06,73292.0,3.97,-11.07,-12.75,0,*7E
1491991394.94,39472,14.06,73294.0,3.99,-11.45,-12.97,0,*79
1491991396.16,39473,14.06,73290.0,3.99,-12.83,-14.11,0,*79
1491991397.39,39474,14.06,73290.5,3.99,-11.73,-12.29,0,*7F
1491991398.62,39475,14.06,73288.8,3.99,-10.75,-10.93,0,*7A
1491991399.85,39476,14.0,73284.8,4.01,-10.23,-10.09,0,*7F
1491991401.08,39477,14.06,73288.3,4.03,-9.49,-8.81,0,*71
1491991402.3,39478,14.06,73286.3,4.05,-9.27,-8.59,0,*75
1491991403.51,39479,14.06,73286.0,4.07,-10.09,-9.41,0,*4A
1491991404.7,39480,14.06,73282.3,4.07,-9.97,-9.71,0,*70
1491991405.91,39481,14.06,73284.8,4.07,-10.35,-10.09,0,*76
1491991407.12,39482,14.06,73284.3,4.07,-9.05,-9.15,0,*7B
1491991408.32,39483,14.06,73288.0,4.11,-8.85,-9.23,0,*71
1491991409.54,39484,14.06,73288.3,4.11,-9.53,-10.09,0,*4C
1491991410.77,39485,14.06,73288.5,4.11,-10.23,-11.07,0,*7D
1491991411.99,39486,14.0,73282.5,4.11,-10.41,-11.15,0,*79
1491991413.24,39487,14.06,73286.8,4.09,-9.37,-9.93,0,*7F
1491991414.47,39488,14.06,73284.5,4.09,-9.67,-10.45,0,*46
1491991415.7,39489,14.06,73288.3,4.09,-8.03,-8.71,0,*7A
1491991416.95,39490,14.06,73286.3,4.11,-7.27,-8.07,0,*73
1491991418.19,39491,14.06,73284.0,4.13,-8.37,-9.49,0,*75
1491991419.45,39492,14.06,73284.5,4.13,-7.31,-8.81,0,*7A
1491991420.66,39493,14.06,73286.8,4.13,-7.83,-9.75,0,*78
1491991421.91,39494,14.06,73276.3,4.17,-7.19,-9.53,0,*7C
1491991423.12,39495,14.06,73278.0,4.17,-8.33,-10.85,0,*49
1491991424.37,39496,14.06,73280.0,4.17,-7.95,-10.53,0,*42
1491991425.64,39497,14.06,73280.0,4.17,-9.57,-12.53,0,*41
1491991426.87,39498,14.06,73276.5,4.13,-10.31,-13.23,0,*74
1491991428.09,39499,14.06,73282.8,4.13,-10.85,-13.65,0,*78
1491991429.31,39500,14.06,73288.5,4.11,-10.89,-13.33,0,*74
1491991430.57,39501,14.06,73284.5,4.11,-12.15,-14.01,0,*74
1491991431.81,39502,14.06,73286.5,4.09,-10.05,-11.51,0,*7D
1491991433.07,39503,14.06,73284.8,4.07,-11.93,-13.01,0,*7B
1491991434.26,39504,14.06,73288.0,4.07,-9.97,-11.11,0,*42
1491991435.49,39505,14.06,73294.0,4.07,-11.63,-13.07,0,*74
1491991436.75,39506,14.06,73298.3,4.05,-12.53,-14.65,0,*76
1491991438.01,39507,14.06,73296.5,4.01,-13.23,-15.57,0,*75
1491991439.27,39508,14.06,73298.0,3.99,-13.29,-16.09,0,*7E
1491991440.52,39509,14.06,73298.8,3.97,-12.79,-15.63,0,*7A
1491991441.75,39510,14.06,73296.0,3.93,-12.93,-16.17,0,*72
1491991442.98,39511,14.06,73298.8,3.89,-12.97,-16.31,0,*78
1491991444.23,39512,14.06,73298.0,3.87,-12.97,-16.17,0,*71
1491991445.48,39513,14.06,73294.5,3.87,-13.43,-16.65,0,*7D
1491991446.71,39514,14.06,73298.8,3.89,-13.61,-16.59,0,*7B
1491991447.95,39515,14.06,73294.3,3.87,-15.35,-18.17,0,*77
1491991449.2,39516,14.06,73292.8,3.83,-14.89,-17.59,0,*73
1491991450.42,39517,14.06,73298.3,3.83,-14.65,-16.93,0,*77
1491991451.68,39518,14.06,73298.8,3.83,-15.21,-17.41,0,*77
1491991452.92,39519,14.06,73298.8,3.81,-16.09,-17.87,0,*77
1491991454.11,39520,14.06,73296.5,3.81,-15.71,-17.31,0,*7C
1491991455.36,39521,14.06,73292.5,3.81,-17.25,-18.55,0,*73
1491991456.58,39522,14.06,73298.8,3.79,-15.63,-16.89,0,*78
1491991457.82,39523,14.06,73294.3,3.81,-14.15,-14.83,0,*76
1491991459.04,39524,14.06,73296.5,3.81,-14.33,-15.35,0,*79
1491991460.3,39525,14.06,73292.3,3.81,-14.47,-15.35,0,*7B
1491991461.54,39526,14.06,73296.0,3.83,-14.93,-16.03,0,*75
1491991462.75,39527,14.06,73286.8,3.81,-16.89,-18.07,0,*75
1491991463.97,39528,14.06,73274.3,3.81,-15.85,-16.97,0,*72
1491991465.17,39529,14.06,73272.5,3.81,-15.71,-16.89,0,*77
1491991466.42,39530,14.06,73280.0,3.81,-16.13,-17.59,0,*74
1491991467.68,39531,14.06,73266.3,3.79,-17.97,-19.13,0,*7F
1491991468.93,39532,14.06,73266.8,3.77,-17.97,-19.27,0,*75
1491991470.17,39533,14.06,73270.8,3.75,-17.25,-18.25,0,*7C
1491991471.43,39534,14.06,73274.5,3.75,-16.69,-17.83,0,*71
1491991472.65,39535,14.06,73280.0,3.73,-18.49,-19.81,0,*76
1491991473.89,39536,14.06,73280.0,3.67,-19.51,-20.89,0,*7A
1491991475.13,39537,14.06,73284.3,3.65,-19.41,-20.69,0,*76
1491991476.35,39538,14.06,73276.0,3.61,-17.69,-18.65,0,*7E
1491991477.6,39539,14.06,73276.0,3.61,-17.41,-18.49,0,*7B
1491991478.83,39540,14.06,73282.5,3.59,-18.31,-19.51,0,*7E
1491991480.07,39541,14.06,73280.3,3.55,-19.65,-21.17,0,*7A
1491991481.32,39542,14.06,73288.0,3.53,-19.51,-20.79,0,*71
1491991482.55,39543,14.06,73292.8,3.51,-18.73,-19.81,0,*7E
1491991483.83,39544,14.06,73298.0,3.49,-18.35,-19.41,0,*7E
1491991485.07,39545,14.06,73284.8,3.49,-18.79,-19.91,0,*7A
1491991486.27,39546,14.06,73278.8,3.43,-18.21,-19.17,0,*70
1491991487.5,39547,14.06,73276.5,3.43,-17.97,-18.73,0,*70
1491991488.73,39548,14.06,73272.8,3.41,-17.69,-18.45,0,*79
1491991489.99,39549,14.06,73274.5,3.39,-17.41,-18.31,0,*7E
1491991491.24,39550,14.06,73268.8,3.41,-17.25,-18.25,0,*7E
1491991492.46,39551,14.06,73274.0,3.39,-17.07,-18.25,0,*70
1491991493.74,39552,14.06,73272.8,3.37,-18.35,-19.41,0,*70
1491991495.01,39553,14.06,73280.0,3.35,-17.45,-18.35,0,*79
1491991496.24,39554,14.06,73288.5,3.35,-17.03,-18.21,0,*79
1491991497.52,39555,14.06,73288.0,3.33,-17.21,-18.35,0,*7B
1491991498.78,39556,14.06,73294.3,3.33,-17.21,-18.65,0,*7D
1491991500.03,39557,14.06,73290.5,3.31,-16.45,-17.79,0,*7F
1491991501.28,39558,14.06,73288.5,3.33,-14.93,-15.95,0,*7B
1491991502.51,39559,14.06,73288.8,3.35,-15.53,-16.69,0,*71
1491991503.74,39560,14.06,73294.3,3.35,-15.99,-17.03,0,*70
1491991504.99,39561,14.06,73292.3,3.37,-15.89,-16.83,0,*7B
1491991506.22,39562,14.06,73294.0,3.37,-17.83,-18.79,0,*7B
1491991507.45,39563,14.06,73294.0,3.35,-16.41,-17.45,0,*77
1491991508.66,39564,14.06,73290.3,3.35,-14.33,-15.07,0,*73
1491991509.94,39565,14.06,73294.0,3.37,-16.09,-17.17,0,*78
1491991511.19,39566,14.06,73290.3,3.39,-17.41,-18.59,0,*7D
1491991512.39,39567,14.06,73294.5,3.35,-17.69,-18.83,0,*7D
1491991513.66,39568,14.06,73286.3,3.33,-17.59,-18.55,0,*7C
1491991514.89,39569,14.06,73282.0,3.33,-17.73,-18.65,0,*76
1491991516.15,39570,14.06,73284.0,3.33,-17.21,-18.11,0,*7A
1491991517.38,39571,14.06,73286.5,3.31,-17.49,-18.11,0,*77
1491991518.63,39572,14.06,73284.5,3.29,-16.23,-17.25,0,*78
1491991519.89,39573,14.06,73284.3,3.27,-16.55,-17.03,0,*72
1491991521.16,39574,14.06,73288.0,3.27,-16.27,-17.41,0,*76
1491991522.4,39575,14.06,73290.5,3.29,-15.85,-17.35,0,*71
1491991523.62,39576,14.06,73286.5,3.27,-16.83,-18.21,0,*73
1491991524.84,39577,14.06,73288.5,3.25,-16.83,-17.93,0,*76
1491991526.06,39578,14.06,73292.3,3.25,-14.93,-16.03,0,*72
1491991527.32,39579,14.06,73290.3,3.27,-14.47,-15.49,0,*75
1491991528.56,39580,14.06,73294.0,3.29,-14.75,-15.49,0,*7C
1491991529.78,39581,14.06,73294.3,3.31,-14.19,-14.69,0,*7D
1491991531.04,39582,14.06,73292.5,3.33,-14.65,-14.97,0,*76
1491991532.3,39583,14.06,73296.3,3.35,-13.61,-14.05,0,*79
1491991533.55,39584,14.06,73296.0,3.37,-13.87,-14.65,0,*72
1491991534.79,39585,14.06,73294.3,3.37,-14.19,-14.89,0,*71
1491991536.04,39586,14.06,73294.8,3.37,-14.33,-14.75,0,*79
1491991537.27,39587,14.06,73294.8,3.37,-14.89,-14.37,0,*7F
1491991538.52,39588,14.06,73292.5,3.37,-15.11,-14.47,0,*77
1491991539.74,39589,14.06,73288.5,3.39,-15.01,-14.61,0,*7D
1491991540.99,39590,14.06,73288.3,3.39,-14.75,-14.47,0,*73
1491991542.2,39591,14.06,73290.3,3.39,-14.19,-13.55,0,*7C
1491991543.45,39592,14.06,73290.0,3.37,-14.23,-13.79,0,*76
1491991544.71,39593,14.06,73288.5,3.37,-13.33,-12.89,0,*7F
1491991545.98,39594,14.06,73290.8,3.37,-12.15,-11.77,0,*7F
1491991547.25,39595,14.06,73288.5,3.37,-11.81,-11.51,0,*74
1491991548.51,39596,14.06,73290.0,3.39,-11.37,-11.29,0,*7B
1491991549.76,39597,14.06,73288.0,3.41,-11.37,-11.45,0,*7F
1491991551.02,39598,14.06,73286.5,3.41,-11.77,-12.29,0,*7D
1491991552.28,39599,14.06,73288.0,3.41,-11.63,-12.43,0,*75
1491991553.5,39600,14.06,73286.0,3.41,-10.05,-11.15,0,*77
1491991554.75,39601,14.06,73290.8,3.45,-9.53,-11.01,0,*4C
1491991555.99,39602,14.06,73292.0,3.49,-9.89,-11.29,0,*4E
1491991557.2,39603,14.06,73292.8,3.51,-9.57,-10.89,0,*4E
1491991558.47,39604,14.06,73292.5,3.55,-10.71,-11.93,0,*7B
1491991559.7,39605,14.06,73288.3,3.55,-11.29,-12.43,0,*78
1491991560.93,39606,14.0,73286.3,3.55,-10.31,-11.55,0,*77
1491991562.16,39607,14.06,73288.0,3.59,-10.27,-11.51,0,*79
1491991563.38,39608,14.06,73292.8,3.59,-10.53,-11.89,0,*70
1491991564.57,39609,14.06,73290.5,3.63,-10.05,-11.45,0,*7B
1491991565.82,39610,14.06,73294.5,3.63,-9.41,-10.79,0,*45
1491991567.04,39611,14.06,73290.5,3.67,-9.19,-10.85,0,*4E
1491991568.25,39612,14.06,73292.0,3.73,-8.71,-10.35,0,*4C
1491991569.49,39613,14.06,73292.5,3.75,-9.71,-11.33,0,*4D
1491991570.71,39614,14.06,73292.5,3.77,-9.49,-11.15,0,*47
1491991571.91,39615,14.06,73290.5,3.81,-9.31,-11.01,0,*45
1491991573.13,39616,14.06,73292.5,3.83,-8.75,-10.53,0,*43
1491991574.34,39617,14.06,73298.0,3.85,-9.79,-11.33,0,*4E
1491991575.59,39618,14.06,73294.3,3.85,-10.41,-11.89,0,*73
1491991576.82,39619,14.06,73292.0,3.85,-9.31,-10.79,0,*43
1491991578.03,39620,14.06,73294.3,3.87,-8.29,-10.05,0,*48
1491991579.25,39621,14.06,73290.8,3.95,-8.33,-10.27,0,*41
1491991580.53,39622,14.06,73288.5,3.95,-9.15,-11.07,0,*44
1491991581.74,39623,14.06,73288.5,3.99,-8.85,-10.57,0,*45
1491991583.0,39624,14.06,73284.8,3.97,-8.89,-10.63,0,*47
1491991584.2,39625,14.06,73286.8,4.03,-9.05,-10.57,0,*4E
1491991585.46,39626,14.06,73286.8,4.05,-10.15,-11.89,0,*70
1491991586.71,39627,14.06,73286.3,4.03,-10.63,-12.35,0,*72
1491991587.97,39628,14.06,73284.5,4.05,-10.15,-11.93,0,*75
1491991589.17,39629,14.06,73288.5,4.07,-10.93,-13.15,0,*74
1491991590.42,39630,14.06,73286.3,4.05,-11.67,-13.93,0,*7A
1491991591.68,39631,14.06,73284.3,4.05,-11.93,-13.93,0,*70
1491991592.96,39632,14.06,73286.0,4.05,-11.55,-12.79,0,*7C
1491991594.25,39633,14.06,73286.0,4.09,-10.67,-11.73,0,*78
1491991595.45,39634,14.06,73282.3,4.11,-10.19,-10.45,0,*7B
1491991596.69,39635,14.06,73286.5,4.13,-10.57,-10.27,0,*76
1491991597.94,39636,14.06,73284.5,4.17,-10.27,-9.53,0,*4D
1491991599.12,39637,14.06,73282.0,4.19,-9.79,-8.71,0,*70
1491991600.33,39638,14.06,73280.5,4.25,-9.93,-8.89,0,*73
1491991601.54,39639,14.06,73278.0,4.23,-10.09,-9.37,0,*4B
1491991602.79,39640,14.06,73278.8,4.25,-11.45,-11.33,0,*77
1491991604.07,39641,14.06,73278.5,4.25,-11.59,-11.93,0,*71
1491991605.33,39642,14.06,73278.3,4.25,-10.97,-11.93,0,*71
1491991606.53,39643,14.06,73282.3,4.23,-10.19,-11.45,0,*7B
1491991607.74,39644,14.06,73284.8,4.23,-10.05,-11.59,0,*7C
1491991608.99,39645,14.06,73284.3,4.23,-9.37,-11.07,0,*4F
1491991610.23,39646,14.06,73284.5,4.23,-9.83,-11.97,0,*4A
1491991611.48,39647,14.06,73284.8,4.23,-10.79,-13.33,0,*7A
1491991612.67,39648,14.06,73288.0,4.23,-10.89,-13.47,0,*79
1491991613.94,39649,14.06,73292.3,4.21,-9.53,-12.35,0,*41
1491991615.16,39650,14.06,73290.5,4.21,-10.49,-13.43,0,*7A
1491991616.43,39651,14.06,73292.0,4.21,-10.67,-13.87,0,*7F
1491991617.71,39652,14.06,73294.8,4.21,-9.49,-12.71,0,*40
1491991618.93,39653,14.06,73294.8,4.21,-9.93,-13.19,0,*49
1491991620.18,39654,14.06,73294.0,4.25,-10.35,-14.01,0,*70
1491991621.4,39655,14.06,73294.0,4.25,-9.79,-13.43,0,*40
1491991622.65,39656,14.06,73292.8,4.25,-10.35,-13.97,0,*7A
1491991623.87,39657,14.06,73294.3,4.27,-12.57,-15.99,0,*77
1491991625.11,39658,14.06,73294.5,4.27,-11.81,-15.01,0,*71
1491991626.33,39659,14.06,73296.3,4.27,-12.39,-15.57,0,*73
1491991627.59,39660,14.06,73298.0,4.29,-12.79,-15.85,0,*7C
1491991628.84,39661,14.06,73298.5,4.29,-14.93,-17.63,0,*75
1491991630.04,39662,14.06,73292.8,4.27,-15.75,-17.83,0,*7F
1491991631.29,39663,14.06,73296.3,4.27,-15.39,-17.03,0,*7E
1491991632.53,39664,14.06,73292.5,4.25,-14.97,-15.99,0,*7F
1491991633.74,39665,14.06,73290.0,4.25,-14.69,-15.15,0,*7B
1491991634.97,39666,14.06,73290.5,4.23,-13.29,-13.55,0,*7F
1491991636.21,39667,14.06,73282.0,4.25,-12.79,-13.23,0,*7D
1491991637.47,39668,14.06,73276.3,4.31,-12.15,-12.93,0,*77
1491991638.72,39669,14.06,73274.3,4.33,-12.15,-13.29,0,*74
1491991639.98,39670,14.06,73276.5,4.33,-12.71,-14.01,0,*73
1491991641.21,39671,14.06,73278.0,4.33,-13.15,-14.47,0,*73
1491991642.41,39672,14.06,73278.5,4.33,-13.15,-14.69,0,*7C
1491991643.66,39673,14.06,73280.3,4.35,-13.87,-15.63,0,*7B
1491991644.94,39674,14.06,73282.0,4.35,-14.01,-15.57,0,*72
1491991646.2,39675,14.06,73282.8,4.35,-13.83,-15.75,0,*7E
1491991647.45,39676,14.06,73280.5,4.35,-15.25,-17.21,0,*74
1491991648.66,39677,14.06,73280.3,4.33,-13.93,-15.95,0,*75
1491991649.92,39678,14.06,73284.0,4.33,-14.01,-16.23,0,*78
1491991651.15,39679,14.06,73290.3,4.31,-14.15,-16.45,0,*7E
1491991652.4,39680,14.06,73288.8,4.31,-14.75,-16.97,0,*71
1491991653.67,39681,14.06,73290.8,4.31,-15.01,-17.21,0,*7E
1491991654.91,39682,14.06,73292.5,4.29,-13.65,-16.09,0,*7B
1491991656.13,39683,14.06,73296.0,4.29,-12.61,-14.61,0,*73
1491991657.39,39684,14.06,73298.3,4.31,-12.71,-14.69,0,*74
1491991658.62,39685,14.06,73296.8,4.33,-15.95,-17.97,0,*78
1491991659.84,39686,14.06,73298.3,4.35,-17.69,-19.17,0,*7A
1491991661.1,39687,14.06,73296.8,4.31,-17.11,-18.11,0,*77
1491991662.35,39688,14.06,73294.0,4.27,-17.17,-17.97,0,*78
1491991663.58,39689,14.06,73292.3,4.29,-16.27,-17.31,0,*79
1491991664.8,39690,14.06,73288.3,4.23,-15.95,-17.25,0,*74
1491991666.05,39691,14.06,73284.0,4.23,-15.43,-17.41,0,*7C
1491991667.25,39692,14.06,73288.5,4.23,-15.71,-17.49,0,*76
1491991668.48,39693,14.06,73286.8,4.23,-15.63,-17.07,0,*7E
1491991669.7,39694,14.06,73290.0,4.25,-14.65,-15.75,0,*7F
1491991670.94,39695,14.06,73294.8,4.25,-14.79,-15.67,0,*70
1491991672.13,39696,14.06,73298.5,4.27,-15.53,-16.45,0,*7B
1491991673.38,39697,14.06,73300.0,4.27,-15.89,-16.69,0,*73
1491991674.63,39698,14.06,73296.5,4.27,-17.17,-17.59,0,*7B
1491991675.88,39699,14.06,73294.3,4.27,-17.45,-17.93,0,*7B
1491991677.13,39700,14.06,73292.0,4.23,-17.25,-17.41,0,*77
1491991678.36,39701,14.06,73284.3,4.23,-16.09,-16.03,0,*7E
1491991679.64,39702,14.06,73282.3,4.21,-16.17,-15.81,0,*79
1491991680.89,39703,14.06,73282.5,4.21,-15.21,-15.29,0,*7C
1491991682.11,39704,14.06,73280.3,4.19,-14.65,-15.21,0,*79
1491991683.36,39705,14.06,73284.5,4.19,-14.93,-15.81,0,*7B
1491991684.58,39706,14.06,73282.8,4.19,-14.65,-16.13,0,*79
1491991685.78,39707,14.06,73280.3,4.19,-15.07,-16.89,0,*7E
1491991687.03,39708,14.06,73278.0,4.17,-15.63,-17.03,0,*7E
1491991688.31,39709,14.06,73278.0,4.13,-15.39,-16.69,0,*79
1491991689.58,39710,14.06,73278.3,4.13,-14.93,-16.31,0,*7D
1491991690.83,39711,14.06,73282.5,4.13,-16.45,-18.55,0,*79
1491991692.06,39712,14.06,73284.5,4.09,-17.69,-19.95,0,*73
1491991693.31,39713,14.06,73286.3,4.09,-16.51,-18.45,0,*74
1491991694.51,39714,14.06,73284.0,4.07,-15.11,-16.83,0,*7E
1491991695.78,39715,14.06,73280.8,4.09,-15.01,-16.51,0,*7F
1491991697.03,39716,14.06,73288.0,4.09,-15.29,-16.65,0,*71
1491991698.29,39717,14.06,73290.3,4.11,-14.43,-15.57,0,*76
1491991699.49,39718,14.06,73290.0,4.11,-13.73,-14.89,0,*7F
1491991700.78,39719,14.06,73286.5,4.13,-13.83,-14.93,0,*78
1491991702.03,39720,14.06,73286.0,4.17,-13.47,-14.51,0,*70
1491991703.29,39721,14.06,73286.3,4.21,-13.83,-14.89,0,*79
1491991704.54,39722,14.06,73286.0,4.21,-13.61,-14.89,0,*76
1491991705.74,39723,14.06,73284.5,4.23,-13.73,-15.07,0,*71